SPKEA EPOD-EPBC

Flight info

Callsign SPKEA
Flight time 1h 1m
Altitude 4500
Route DCT EPODS DCT 533827N0202252E 532353N0201412E 5314N02010E 525627N0200536E/N0120A015 523005N0200205E 521526N0201846E DCT MULZA DCT EPBCF DCT
Aircraft C172/L-SBDGR/C

Departure

Time 2026-05-05 18:08
Airport Olsztyn-Dajtki Airfield (EPOD)

Arrival

Time 2026-05-05 19:10
Airport Warsaw Babice Airport (EPBC)
Time Latitude Longitude Altitude Speed Heading
2026-05-05 18:00 53.77511 20.41799 434 ft 0 kts 160°
2026-05-05 18:04 53.77508 20.41800 434 ft 2 kts 162°
2026-05-05 18:04 53.77494 20.41753 434 ft 7 kts 254°
2026-05-05 18:04 53.77478 20.41657 434 ft 7 kts 253°
2026-05-05 18:04 53.77453 20.41559 434 ft 12 kts 241°
2026-05-05 18:05 53.77420 20.41449 435 ft 10 kts 240°
2026-05-05 18:05 53.77406 20.41433 435 ft 0 kts 184°
2026-05-05 18:05 53.77398 20.41431 435 ft 6 kts 188°
2026-05-05 18:05 53.77391 20.41322 435 ft 15 kts 275°
2026-05-05 18:06 53.77403 20.41145 433 ft 8 kts 295°
2026-05-05 18:06 53.77399 20.41136 433 ft 0 kts 103°
2026-05-05 18:06 53.77398 20.41154 433 ft 0 kts 94°
2026-05-05 18:07 53.77393 20.41254 436 ft 29 kts 91°
2026-05-05 18:07 53.77363 20.41848 464 ft 65 kts 90°
2026-05-05 18:08 53.77304 20.42570 704 ft 58 kts 87°
2026-05-05 18:08 53.77258 20.43264 885 ft 64 kts 85°
2026-05-05 18:08 53.77206 20.44073 1078 ft 69 kts 91°
2026-05-05 18:08 53.76940 20.44768 1318 ft 78 kts 134°
2026-05-05 18:09 53.76360 20.44992 1475 ft 98 kts 176°
2026-05-05 18:09 53.75660 20.44764 1613 ft 108 kts 189°
2026-05-05 18:09 53.74942 20.44305 1748 ft 110 kts 198°
2026-05-05 18:09 53.74225 20.43804 1889 ft 114 kts 198°
2026-05-05 18:10 53.73474 20.43336 2024 ft 116 kts 192°
2026-05-05 18:10 53.72697 20.42896 2137 ft 117 kts 195°
2026-05-05 18:10 53.71913 20.42558 2265 ft 117 kts 188°
2026-05-05 18:10 53.71125 20.42247 2395 ft 117 kts 190°
2026-05-05 18:11 53.70348 20.41744 2461 ft 122 kts 200°
2026-05-05 18:11 53.69558 20.41184 2510 ft 125 kts 200°
2026-05-05 18:11 53.68722 20.40712 2519 ft 128 kts 192°
2026-05-05 18:11 53.67863 20.40253 2512 ft 132 kts 196°
2026-05-05 18:12 53.66980 20.39731 2510 ft 134 kts 196°
2026-05-05 18:12 53.66102 20.39222 2510 ft 135 kts 195°
2026-05-05 18:12 53.65203 20.38745 2514 ft 135 kts 193°
2026-05-05 18:12 53.64303 20.38273 2510 ft 136 kts 195°
2026-05-05 18:13 53.63415 20.37756 2516 ft 135 kts 196°
2026-05-05 18:13 53.62515 20.37233 2516 ft 136 kts 196°
2026-05-05 18:13 53.61626 20.36714 2509 ft 136 kts 195°
2026-05-05 18:13 53.60720 20.36183 2502 ft 136 kts 193°
2026-05-05 18:14 53.59817 20.35719 2496 ft 136 kts 194°
2026-05-05 18:14 53.58924 20.35162 2497 ft 136 kts 197°
2026-05-05 18:14 53.58044 20.34595 2494 ft 136 kts 196°
2026-05-05 18:14 53.57162 20.34026 2495 ft 136 kts 196°
2026-05-05 18:15 53.56275 20.33456 2492 ft 136 kts 195°
2026-05-05 18:15 53.55388 20.32973 2489 ft 135 kts 191°
2026-05-05 18:15 53.54487 20.32523 2492 ft 135 kts 191°
2026-05-05 18:15 53.53600 20.32029 2493 ft 136 kts 197°
2026-05-05 18:16 53.52709 20.31413 2494 ft 136 kts 198°
2026-05-05 18:16 53.51836 20.30800 2492 ft 136 kts 198°
2026-05-05 18:16 53.50963 20.30241 2496 ft 135 kts 195°
2026-05-05 18:16 53.50069 20.29688 2499 ft 136 kts 195°
2026-05-05 18:17 53.49175 20.29136 2502 ft 135 kts 195°
2026-05-05 18:17 53.48282 20.28653 2503 ft 135 kts 193°
2026-05-05 18:17 53.47391 20.28191 2510 ft 135 kts 192°
2026-05-05 18:17 53.46491 20.27725 2508 ft 135 kts 192°
2026-05-05 18:18 53.45598 20.27235 2506 ft 135 kts 194°
2026-05-05 18:18 53.44696 20.26725 2507 ft 135 kts 194°
2026-05-05 18:18 53.43809 20.26221 2503 ft 135 kts 194°
2026-05-05 18:18 53.42632 20.25544 2501 ft 135 kts 194°
2026-05-05 18:19 53.41765 20.24958 2503 ft 136 kts 198°
2026-05-05 18:19 53.40895 20.24299 2506 ft 137 kts 201°
2026-05-05 18:19 53.40039 20.23622 2500 ft 137 kts 201°
2026-05-05 18:19 53.39176 20.22927 2496 ft 137 kts 201°
2026-05-05 18:20 53.38320 20.22233 2496 ft 137 kts 200°
2026-05-05 18:20 53.37724 20.21880 2501 ft 135 kts 191°
2026-05-05 18:20 53.36823 20.21439 2500 ft 135 kts 190°
2026-05-05 18:20 53.35616 20.20910 2501 ft 134 kts 186°
2026-05-05 18:21 53.34706 20.20568 2499 ft 134 kts 186°
2026-05-05 18:21 53.33799 20.20229 2503 ft 134 kts 186°
2026-05-05 18:21 53.33197 20.20007 2503 ft 134 kts 186°
2026-05-05 18:21 53.31981 20.19563 2504 ft 133 kts 186°
2026-05-05 18:22 53.31374 20.19343 2507 ft 133 kts 186°
2026-05-05 18:22 53.30473 20.19031 2508 ft 133 kts 184°
2026-05-05 18:22 53.29252 20.18846 2513 ft 132 kts 178°
2026-05-05 18:22 53.28632 20.18768 2514 ft 132 kts 178°
2026-05-05 18:23 53.27415 20.18524 2509 ft 134 kts 189°
2026-05-05 18:23 53.26805 20.18240 2506 ft 134 kts 191°
2026-05-05 18:23 53.25613 20.17618 2501 ft 136 kts 197°
2026-05-05 18:23 53.24758 20.16919 2497 ft 137 kts 201°
2026-05-05 18:24 53.23856 20.16521 2499 ft 132 kts 182°
2026-05-05 18:24 53.23248 20.16366 2496 ft 133 kts 182°
2026-05-05 18:24 53.22038 20.16032 2496 ft 133 kts 183°
2026-05-05 18:24 53.21422 20.15893 2501 ft 132 kts 180°
2026-05-05 18:25 53.20211 20.15667 2495 ft 132 kts 180°
2026-05-05 18:25 53.19907 20.15609 2494 ft 132 kts 179°
2026-05-05 18:25 53.18378 20.15429 2494 ft 132 kts 176°
2026-05-05 18:25 53.17773 20.15320 2496 ft 133 kts 181°
2026-05-05 18:26 53.16550 20.15019 2486 ft 133 kts 182°
2026-05-05 18:26 53.15943 20.14823 2487 ft 134 kts 185°
2026-05-05 18:26 53.14723 20.14549 2485 ft 132 kts 180°
2026-05-05 18:26 53.13809 20.14354 2479 ft 133 kts 182°
2026-05-05 18:27 53.13198 20.14235 2478 ft 132 kts 176°
2026-05-05 18:27 53.12279 20.14157 2478 ft 131 kts 174°
2026-05-05 18:27 53.11058 20.13994 2474 ft 133 kts 180°
2026-05-05 18:27 53.10438 20.13820 2469 ft 134 kts 183°
2026-05-05 18:28 53.08616 20.13236 2464 ft 133 kts 183°
2026-05-05 18:28 53.07697 20.13004 2469 ft 133 kts 181°
2026-05-05 18:28 53.06781 20.12752 2469 ft 133 kts 184°
2026-05-05 18:29 53.05874 20.12493 2475 ft 133 kts 182°
2026-05-05 18:29 53.04662 20.12195 2483 ft 133 kts 186°
2026-05-05 18:29 53.04057 20.11974 2487 ft 133 kts 184°
2026-05-05 18:29 53.02829 20.11620 2489 ft 133 kts 182°
2026-05-05 18:30 53.01913 20.11353 2493 ft 133 kts 183°
2026-05-05 18:30 53.01311 20.11203 2489 ft 133 kts 180°
2026-05-05 18:30 53.00089 20.10834 2486 ft 134 kts 187°
2026-05-05 18:30 52.99488 20.10611 2485 ft 133 kts 182°
2026-05-05 18:31 52.98265 20.10300 2486 ft 133 kts 181°
2026-05-05 18:31 52.97657 20.10149 2486 ft 133 kts 182°
2026-05-05 18:31 52.96742 20.09839 2484 ft 134 kts 185°
2026-05-05 18:31 52.95522 20.09427 2486 ft 132 kts 181°
2026-05-05 18:32 52.94917 20.09276 2488 ft 132 kts 180°
2026-05-05 18:32 52.93698 20.09112 2488 ft 132 kts 180°
2026-05-05 18:32 52.92797 20.08898 2484 ft 132 kts 181°
2026-05-05 18:32 52.91876 20.08635 2485 ft 132 kts 183°
2026-05-05 18:33 52.91274 20.08527 2482 ft 130 kts 176°
2026-05-05 18:33 52.90075 20.08392 2482 ft 130 kts 175°
2026-05-05 18:33 52.89464 20.08324 2480 ft 130 kts 175°
2026-05-05 18:33 52.88262 20.08211 2484 ft 130 kts 175°
2026-05-05 18:34 52.87349 20.08121 2482 ft 130 kts 175°
2026-05-05 18:34 52.86451 20.08051 2479 ft 129 kts 173°
2026-05-05 18:34 52.85851 20.08014 2478 ft 129 kts 174°
2026-05-05 18:34 52.84645 20.07921 2481 ft 129 kts 175°
2026-05-05 18:35 52.84059 20.07874 2481 ft 129 kts 174°
2026-05-05 18:35 52.83154 20.07774 2476 ft 130 kts 179°
2026-05-05 18:35 52.82247 20.07622 2471 ft 130 kts 177°
2026-05-05 18:35 52.81058 20.07456 2464 ft 129 kts 178°
2026-05-05 18:36 52.80452 20.07321 2464 ft 129 kts 180°
2026-05-05 18:36 52.79267 20.07138 2471 ft 128 kts 174°
2026-05-05 18:36 52.78365 20.07013 2476 ft 129 kts 178°
2026-05-05 18:36 52.77769 20.06916 2473 ft 130 kts 178°
2026-05-05 18:37 52.76867 20.06777 2471 ft 131 kts 177°
2026-05-05 18:37 52.75642 20.06592 2472 ft 131 kts 178°
2026-05-05 18:37 52.75039 20.06526 2471 ft 130 kts 173°
2026-05-05 18:37 52.73830 20.06519 2471 ft 129 kts 172°
2026-05-05 18:38 52.73218 20.06443 2472 ft 131 kts 178°
2026-05-05 18:38 52.72018 20.06240 2469 ft 129 kts 175°
2026-05-05 18:38 52.71117 20.06160 2466 ft 127 kts 175°
2026-05-05 18:38 52.70238 20.06042 2458 ft 126 kts 178°
2026-05-05 18:39 52.69363 20.05912 2453 ft 125 kts 178°
2026-05-05 18:39 52.68787 20.05840 2453 ft 123 kts 177°
2026-05-05 18:39 52.67936 20.05738 2450 ft 124 kts 176°
2026-05-05 18:39 52.66765 20.05577 2444 ft 125 kts 174°
2026-05-05 18:40 52.65890 20.05484 2454 ft 128 kts 180°
2026-05-05 18:40 52.65306 20.05366 2496 ft 126 kts 179°
2026-05-05 18:40 52.64417 20.05213 2503 ft 127 kts 179°
2026-05-05 18:40 52.63256 20.04966 2510 ft 126 kts 179°
2026-05-05 18:41 52.62377 20.04835 2509 ft 125 kts 175°
2026-05-05 18:41 52.61514 20.04760 2507 ft 124 kts 177°
2026-05-05 18:41 52.60649 20.04628 2506 ft 124 kts 176°
2026-05-05 18:41 52.60074 20.04575 2507 ft 123 kts 174°
2026-05-05 18:42 52.59212 20.04461 2511 ft 124 kts 180°
2026-05-05 18:42 52.58362 20.04278 2513 ft 122 kts 176°
2026-05-05 18:42 52.57230 20.04158 2517 ft 122 kts 175°
2026-05-05 18:42 52.56377 20.04062 2508 ft 121 kts 176°
2026-05-05 18:43 52.55534 20.03993 2502 ft 119 kts 178°
2026-05-05 18:43 52.54982 20.03987 2501 ft 117 kts 184°
2026-05-05 18:43 52.53907 20.04090 2508 ft 115 kts 182°
2026-05-05 18:43 52.53376 20.04156 2495 ft 113 kts 181°
2026-05-05 18:44 52.52610 20.04118 2497 ft 109 kts 194°
2026-05-05 18:44 52.51873 20.03825 2501 ft 108 kts 198°
2026-05-05 18:44 52.51134 20.03600 2500 ft 112 kts 181°
2026-05-05 18:44 52.50331 20.03467 2510 ft 116 kts 175°
2026-05-05 18:45 52.49220 20.03687 2201 ft 120 kts 156°
2026-05-05 18:45 52.48698 20.04010 2031 ft 120 kts 151°
2026-05-05 18:45 52.47922 20.04729 1860 ft 132 kts 153°
2026-05-05 18:45 52.46982 20.06148 1616 ft 142 kts 140°
2026-05-05 18:46 52.46500 20.06877 1527 ft 136 kts 146°
2026-05-05 18:46 52.45833 20.07869 1504 ft 124 kts 143°
2026-05-05 18:46 52.45197 20.08748 1504 ft 117 kts 149°
2026-05-05 18:46 52.44529 20.09563 1503 ft 119 kts 148°
2026-05-05 18:47 52.43902 20.10480 1500 ft 121 kts 146°
2026-05-05 18:47 52.43030 20.11555 1503 ft 114 kts 146°
2026-05-05 18:47 52.42337 20.12159 1506 ft 113 kts 145°
2026-05-05 18:47 52.41654 20.12827 1516 ft 112 kts 141°
2026-05-05 18:48 52.41232 20.13306 1521 ft 109 kts 138°
2026-05-05 18:48 52.40603 20.14064 1518 ft 111 kts 133°
2026-05-05 18:48 52.39995 20.14833 1513 ft 111 kts 131°
2026-05-05 18:48 52.39407 20.15660 1516 ft 109 kts 133°
2026-05-05 18:49 52.38895 20.16577 1506 ft 111 kts 134°
2026-05-05 18:49 52.38388 20.17568 1513 ft 114 kts 141°
2026-05-05 18:49 52.37794 20.18433 1501 ft 116 kts 150°
2026-05-05 18:49 52.37114 20.19186 1499 ft 117 kts 155°
2026-05-05 18:50 52.36388 20.19836 1495 ft 118 kts 158°
2026-05-05 18:50 52.35699 20.20565 1497 ft 120 kts 152°
2026-05-05 18:50 52.35008 20.21346 1501 ft 118 kts 155°
2026-05-05 18:50 52.34314 20.22023 1498 ft 115 kts 157°
2026-05-05 18:51 52.33621 20.22701 1498 ft 116 kts 153°
2026-05-05 18:51 52.32952 20.23451 1494 ft 115 kts 152°
2026-05-05 18:51 52.32300 20.24173 1497 ft 112 kts 152°
2026-05-05 18:51 52.31426 20.25128 1504 ft 113 kts 154°
2026-05-05 18:52 52.30971 20.25568 1504 ft 115 kts 155°
2026-05-05 18:52 52.30292 20.26300 1506 ft 116 kts 152°
2026-05-05 18:52 52.29604 20.27014 1494 ft 117 kts 155°
2026-05-05 18:52 52.28887 20.27671 1496 ft 118 kts 157°
2026-05-05 18:53 52.28179 20.28312 1497 ft 117 kts 154°
2026-05-05 18:53 52.27491 20.29049 1492 ft 120 kts 146°
2026-05-05 18:53 52.26885 20.30021 1497 ft 123 kts 134°
2026-05-05 18:53 52.26377 20.31150 1501 ft 124 kts 130°
2026-05-05 18:54 52.25962 20.32398 1501 ft 126 kts 116°
2026-05-05 18:54 52.25786 20.33816 1504 ft 127 kts 101°
2026-05-05 18:54 52.25698 20.35247 1497 ft 127 kts 98°
2026-05-05 18:54 52.25716 20.36692 1497 ft 128 kts 94°
2026-05-05 18:55 52.25730 20.38633 1490 ft 128 kts 94°
2026-05-05 18:55 52.25738 20.39608 1497 ft 128 kts 91°
2026-05-05 18:55 52.25773 20.41051 1500 ft 126 kts 95°
2026-05-05 18:55 52.25798 20.42489 1501 ft 123 kts 92°
2026-05-05 18:56 52.25808 20.43867 1491 ft 122 kts 96°
2026-05-05 18:56 52.25809 20.45281 1497 ft 125 kts 95°
2026-05-05 18:56 52.25794 20.46726 1498 ft 126 kts 94°
2026-05-05 18:56 52.25735 20.48163 1499 ft 127 kts 97°
2026-05-05 18:57 52.25703 20.49611 1499 ft 127 kts 94°
2026-05-05 18:57 52.25715 20.51067 1498 ft 128 kts 91°
2026-05-05 18:57 52.25767 20.52511 1498 ft 128 kts 91°
2026-05-05 18:57 52.25778 20.53977 1499 ft 128 kts 94°
2026-05-05 18:58 52.25791 20.55422 1499 ft 128 kts 90°
2026-05-05 18:58 52.25832 20.56876 1497 ft 128 kts 91°
2026-05-05 18:58 52.25868 20.58347 1497 ft 128 kts 92°
2026-05-05 18:58 52.25869 20.59808 1501 ft 128 kts 94°
2026-05-05 18:59 52.25877 20.61260 1500 ft 128 kts 94°
2026-05-05 18:59 52.25869 20.62710 1498 ft 128 kts 94°
2026-05-05 18:59 52.25879 20.64168 1498 ft 128 kts 92°
2026-05-05 18:59 52.25881 20.65629 1497 ft 128 kts 95°
2026-05-05 19:00 52.25901 20.67084 1498 ft 127 kts 92°
2026-05-05 19:00 52.25926 20.68471 1494 ft 117 kts 96°
2026-05-05 19:00 52.25926 20.69781 1498 ft 114 kts 95°
2026-05-05 19:00 52.25949 20.71083 1495 ft 116 kts 92°
2026-05-05 19:01 52.26008 20.72417 1498 ft 118 kts 91°
2026-05-05 19:01 52.26098 20.73752 1497 ft 120 kts 85°
2026-05-05 19:01 52.26226 20.75110 1497 ft 121 kts 82°
2026-05-05 19:01 52.26397 20.76458 1496 ft 120 kts 83°
2026-05-05 19:02 52.26539 20.77800 1498 ft 120 kts 87°
2026-05-05 19:02 52.26664 20.79160 1498 ft 118 kts 88°
2026-05-05 19:02 52.26782 20.80473 1497 ft 115 kts 88°
2026-05-05 19:02 52.26876 20.81733 1493 ft 110 kts 91°
2026-05-05 19:03 52.26970 20.82969 1495 ft 108 kts 89°
2026-05-05 19:03 52.27057 20.84169 1499 ft 105 kts 90°
2026-05-05 19:03 52.27156 20.85352 1505 ft 105 kts 85°
2026-05-05 19:03 52.27486 20.86414 1516 ft 114 kts 42°
2026-05-05 19:04 52.28234 20.86886 1541 ft 116 kts
2026-05-05 19:04 52.29020 20.87126 1613 ft 115 kts 16°
2026-05-05 19:04 52.29671 20.87862 1625 ft 115 kts 48°
2026-05-05 19:04 52.30218 20.88858 1611 ft 118 kts 52°
2026-05-05 19:05 52.30738 20.89893 1627 ft 119 kts 56°
2026-05-05 19:05 52.31197 20.91030 1646 ft 118 kts 63°
2026-05-05 19:05 52.31443 20.92165 1721 ft 93 kts 101°
2026-05-05 19:05 52.31187 20.93027 1791 ft 86 kts 130°
2026-05-05 19:06 52.30819 20.93816 1793 ft 87 kts 133°
2026-05-05 19:06 52.30461 20.94617 1802 ft 89 kts 130°
2026-05-05 19:06 52.30118 20.95486 1799 ft 92 kts 130°
2026-05-05 19:06 52.29762 20.96390 1772 ft 95 kts 129°
2026-05-05 19:07 52.29417 20.97252 1779 ft 81 kts 132°
2026-05-05 19:07 52.29002 20.97744 1653 ft 72 kts 168°
2026-05-05 19:07 52.28502 20.97715 1550 ft 75 kts 191°
2026-05-05 19:07 52.28049 20.97295 1495 ft 74 kts 214°
2026-05-05 19:08 52.27653 20.96732 1493 ft 75 kts 215°
2026-05-05 19:08 52.27248 20.96180 1503 ft 79 kts 214°
2026-05-05 19:08 52.26814 20.95595 1462 ft 81 kts 224°
2026-05-05 19:08 52.26535 20.94835 1309 ft 74 kts 244°
2026-05-05 19:09 52.26494 20.94002 1044 ft 76 kts 271°
2026-05-05 19:09 52.26586 20.93148 762 ft 77 kts 279°
2026-05-05 19:09 52.26693 20.92310 535 ft 74 kts 281°
2026-05-05 19:09 52.26801 20.91530 360 ft 66 kts 283°
2026-05-05 19:10 52.26888 20.90922 350 ft 44 kts 282°
2026-05-05 19:10 52.26931 20.90576 350 ft 13 kts 259°
2026-05-05 19:10 52.26872 20.90542 350 ft 9 kts 156°
2026-05-05 19:10 52.26787 20.90610 350 ft 15 kts 152°
2026-05-05 19:11 52.26709 20.90678 350 ft 10 kts 153°
2026-05-05 19:11 52.26650 20.90720 350 ft 8 kts 186°
2026-05-05 19:11 52.26641 20.90640 350 ft 11 kts 283°
2026-05-05 19:11 52.26664 20.90474 350 ft 13 kts 282°
2026-05-05 19:12 52.26682 20.90341 350 ft 11 kts 283°
2026-05-05 19:12 52.26701 20.90212 350 ft 11 kts 283°
2026-05-05 19:12 52.26720 20.90082 350 ft 11 kts 283°
2026-05-05 19:12 52.26737 20.89954 350 ft 11 kts 282°
2026-05-05 19:13 52.26766 20.89877 350 ft 8 kts 276°
2026-05-05 19:13 52.26763 20.89866 350 ft 0 kts 189°